Willimantic, CT

1:07 AM EDT on October 24, 2019 (GMT -0400)
Windham

Weather History for KIJD - August, 2019

Change the Weather History Date:

Tuesday, August 6, 2019

  Actual Average Record
Temperature  
Mean Temperature 68 °F -  
Max Temperature 79 °F 83 °F 95 °F (1955)
Min Temperature 57 °F 58 °F 45 °F (1953)
Cooling Degree Days 2    
Growing Degree Days 18 (Base 50)    
Moisture  
Dew Point 61 °F    
Average Humidity 87    
Maximum Humidity 100    
Minimum Humidity 62    
Precipitation  
Precipitation 0.00 in - - ()
Sea Level Pressure  
Sea Level Pressure 29.93 in    
Wind  
Wind Speed 2 mph (NNE)    
Max Wind Speed 9 mph    
Max Gust Speed -    
Visibility 7 miles    
Events Fog    
Averages and records for this station are not official NWS values.
T = Trace of Precipitation, MM = Missing Value Source: NWS Daily Summary

Daily Weather History Graph

Daily Weather History Graph

Search for Another Location

Airport or City:

Astronomy

Aug. 06, 2019 Rise Set
Actual Time 5:47 AM EDT 8:00 PM EDT
Civil Twilight 5:16 AM EDT 8:31 PM EDT
Nautical Twilight 4:38 AM EDT 9:09 PM EDT
Astronomical Twilight 3:56 AM EDT 9:51 PM EDT
Moon 12:14 PM EDT (8/6) 11:38 PM EDT (8/6)
Length of Visible Light 15h 15m
Length of Day
14h 13m
Waxing Crescent, 38% of the Moon is Illuminated
Aug 6
Waxing Crescent
Aug 7
First Quarter
Aug 15
Full
Aug 23
Last Quarter
Aug 30
New

Hourly Weather History & Observations

Time (EDT) Temp. Dew Point Humidity Pressure Visibility Wind Dir Wind Speed Gust Speed Precip Events Conditions
12:52 AM 62.1 °F 59.0 °F 90% 29.98 in 10.0 mi Calm Calm - N/A   Clear
1:52 AM 61.0 °F 57.9 °F 90% 29.97 in 10.0 mi Calm Calm - N/A   Clear
2:52 AM 59.0 °F 57.9 °F 96% 29.95 in 10.0 mi Calm Calm - N/A   Clear
3:52 AM 59.0 °F 57.0 °F 93% 29.95 in 10.0 mi North 3.5 mph - N/A   Clear
4:16 AM 57.9 °F 57.0 °F 97% 29.97 in 10.0 mi Calm Calm - N/A   Scattered Clouds
4:26 AM 59.0 °F 57.0 °F 93% 29.95 in 10.0 mi Calm Calm - N/A   Mostly Cloudy
4:52 AM 59.0 °F 57.0 °F 93% 29.96 in 10.0 mi North 3.5 mph - N/A   Overcast
5:36 AM 59.0 °F 57.0 °F 93% 29.97 in 10.0 mi NNE 3.5 mph - N/A   Overcast
5:52 AM 59.0 °F 57.9 °F 96% 29.96 in 2.0 mi Calm Calm - N/A   Overcast
5:54 AM 59.0 °F 57.9 °F 96% 29.96 in 0.8 mi Calm Calm - N/A   Overcast
6:03 AM 59.0 °F 57.9 °F 96% 29.97 in 0.2 mi NNW 3.5 mph - N/A Fog Fog
6:15 AM 59.0 °F 57.9 °F 96% 29.98 in 1.2 mi NNW 4.6 mph - N/A   Overcast
6:17 AM 59.0 °F 57.0 °F 93% 29.96 in 4.0 mi North 3.5 mph - N/A   Overcast
6:52 AM 60.1 °F 57.9 °F 93% 29.96 in 8.0 mi Calm Calm - N/A   Overcast
7:21 AM 61.0 °F 60.1 °F 97% 29.96 in 1.8 mi North - - N/A   Overcast
7:33 AM 61.0 °F 60.1 °F 97% 29.96 in 0.2 mi Calm Calm - N/A Fog Fog
7:52 AM 62.1 °F 61.0 °F 96% 29.96 in 0.2 mi Calm Calm - N/A Fog Fog
8:17 AM 62.1 °F 62.1 °F 100% 29.96 in 1.0 mi Calm Calm - N/A   Mist
8:21 AM 63.0 °F 62.1 °F 97% 29.96 in 3.0 mi Calm Calm - N/A   Overcast
8:25 AM 63.0 °F 62.1 °F 97% 29.96 in 1.5 mi Calm Calm - N/A   Overcast
8:33 AM 63.0 °F 62.1 °F 97% 29.95 in 0.5 mi NNW 3.5 mph - N/A Fog Fog
8:43 AM 64.0 °F 62.1 °F 93% 29.95 in 2.0 mi Calm Calm - N/A   Overcast
8:50 AM 64.4 °F 62.6 °F 94% 29.95 in 10.0 mi NE 4.6 mph - N/A   Overcast
8:52 AM 64.0 °F 62.1 °F 93% 29.94 in 10.0 mi ENE 3.5 mph - N/A   Overcast
9:09 AM 66.9 °F 63.0 °F 87% 29.94 in 10.0 mi Calm Calm - N/A   Mostly Cloudy
9:23 AM 68.0 °F 63.0 °F 84% 29.93 in 10.0 mi Calm Calm - N/A   Scattered Clouds
9:52 AM 71.1 °F 64.9 °F 81% 29.92 in 10.0 mi WNW 3.5 mph - N/A   Clear
10:52 AM 73.9 °F 64.9 °F 73% 29.92 in 10.0 mi Calm Calm - N/A   Clear
11:52 AM 75.9 °F 66.0 °F 71% 29.93 in 10.0 mi Calm Calm - N/A   Clear
12:52 PM 75.9 °F 64.0 °F 67% 29.91 in 10.0 mi SE 4.6 mph - N/A   Clear
1:52 PM 77.0 °F 66.9 °F 71% 29.89 in 10.0 mi Variable 3.5 mph - N/A   Clear
2:52 PM 78.1 °F 64.9 °F 64% 29.87 in 10.0 mi SSE 5.8 mph - N/A   Clear
3:52 PM 78.1 °F 64.9 °F 64% 29.86 in 10.0 mi Variable 5.8 mph - N/A   Partly Cloudy
4:52 PM 78.1 °F 64.0 °F 62% 29.84 in 10.0 mi South 9.2 mph - N/A   Clear
5:52 PM 77.0 °F 63.0 °F 62% 29.86 in 10.0 mi SSE 5.8 mph - N/A   Clear
6:52 PM 75.9 °F 62.1 °F 62% 29.84 in 10.0 mi South 5.8 mph - N/A   Clear
7:52 PM 73.9 °F 64.0 °F 71% 29.85 in 10.0 mi SSW 3.5 mph - N/A   Clear
8:52 PM 70.0 °F 64.9 °F 84% 29.86 in 10.0 mi Calm Calm - N/A   Clear
9:52 PM 68.0 °F 64.0 °F 87% 29.87 in 10.0 mi Calm Calm - N/A   Clear
10:52 PM 66.0 °F 64.0 °F 93% 29.87 in 10.0 mi Calm Calm - N/A   Clear
11:52 PM 66.0 °F 64.0 °F 93% 29.87 in 10.0 mi Calm Calm - N/A   Clear